STARLINK-32485 (62143 NORAD) Tracking and Keplerian Element Data

This shows tracking and keplerian element data for the satellite.

Feedback or suggestion? Click here.




ElementValue
Catalog62143
NameSTARLINK-32485
Epoch Orbit1099
Epoch Day35.00092664
Epoch Year2025
RAAN256.7872
Inclination42.9994
Eccentricity0.000119
Argument of Perigee274.5852
Mean Anonmoly85.4865
Mean Motion15.32093796
Decay Rate6.01E-06
L11 62143U 24224E 25035.00092664 .00000601 00000+0 27692-4 0 9998
L22 62143 42.9994 256.7872 0001190 274.5852 85.4865 15.32093796 10996



Live tracking and technical data element details for STARLINK-32485 (NORAD 62143). STARLINK-32485 can be tracked NOW for your location showing map with azimuth and elevation plus other details from your city location.







IsCatalogInMostPopularTable: catalog: 62143, numindb: 16
Update: records affected: 1



GetName: 62143 STARLINK-32485

Hit Count: updated at: Sun, 18 May 2025 23:28:20 GMT